| time (UTC) | temp F | wind direction | speed MPH | gust MPH | rain 1hr in | rain 24hr in | rain mn in | humidity % | barometer mb |
| 20260507171756 | 67 | 90 | 1.0 | 4.0 | 0.00 | 0.01 | 0.01 | 67 | 1016.5 |
| 20260507171257 | 67 | 90 | 3.0 | 5.0 | 0.00 | 0.01 | 0.01 | 67 | 1016.6 |
| 20260507170757 | 68 | 103 | 2.0 | 5.0 | 0.00 | 0.01 | 0.01 | 68 | 1016.6 |
| 20260507170257 | 68 | 113 | 2.0 | 5.0 | 0.00 | 0.01 | 0.01 | 68 | 1016.9 |
| 20260507165756 | 68 | 105 | 2.0 | 5.0 | 0.00 | 0.01 | 0.01 | 68 | 1017.1 |
| 20260507165257 | 68 | 105 | 1.0 | 3.0 | 0.00 | 0.01 | 0.01 | 67 | 1017.2 |
| 20260507164756 | 68 | 205 | 1.0 | 3.0 | 0.00 | 0.01 | 0.01 | 67 | 1017.4 |
| 20260507164257 | 68 | 209 | 0.0 | 3.0 | 0.00 | 0.01 | 0.01 | 66 | 1017.4 |
| 20260507163757 | 68 | 167 | 0.0 | 2.0 | 0.00 | 0.01 | 0.01 | 66 | 1017.4 |
| 20260507163256 | 69 | 153 | 0.0 | 1.0 | 0.00 | 0.01 | 0.01 | 66 | 1017.3 |
| 20260507162756 | 69 | 153 | 0.0 | 0.0 | 0.00 | 0.01 | 0.01 | 66 | 1017.2 |
| 20260507162257 | 68 | 153 | 0.0 | 1.0 | 0.00 | 0.01 | 0.01 | 68 | 1017.3 |
| 20260507162235 | 68 | 153 | 0.0 | 2.0 | 0.00 | 0.01 | 0.01 | 68 | 1017.3 |
| 20260507161244 | 68 | 157 | 1.0 | 4.0 | 0.00 | 0.01 | 0.01 | 67 | 1017.3 |
| 20260507160738 | 68 | 151 | 2.0 | 5.0 | 0.00 | 0.01 | 0.01 | 68 | 1017.4 |
| 20260507160232 | 69 | 196 | 2.0 | 5.0 | 0.00 | 0.01 | 0.01 | 67 | 1017.4 |
| 20260507155726 | 69 | 115 | 1.0 | 5.0 | 0.00 | 0.01 | 0.01 | 67 | 1017.5 |
| 20260507155220 | 69 | 138 | 1.0 | 3.0 | 0.00 | 0.01 | 0.01 | 67 | 1017.3 |
| 20260507154714 | 69 | 130 | 1.0 | 3.0 | 0.00 | 0.01 | 0.01 | 65 | 1017.3 |
| 20260507154208 | 69 | 129 | 0.0 | 2.0 | 0.00 | 0.01 | 0.01 | 65 | 1017.3 |
| 20260507153922 | 68 | 130 | 1.0 | 2.0 | 0.00 | 0.01 | 0.01 | 66 | 1017.5 |
| 20260507153156 | 68 | 129 | 2.0 | 3.0 | 0.00 | 0.01 | 0.01 | 68 | 1017.5 |
| 20260507152651 | 68 | 189 | 1.0 | 3.0 | 0.00 | 0.01 | 0.01 | 67 | 1017.7 |
| 20260507152143 | 68 | 217 | 1.0 | 4.0 | 0.00 | 0.01 | 0.01 | 65 | 1017.6 |
| 20260507151638 | 68 | 204 | 1.0 | 4.0 | 0.00 | 0.01 | 0.01 | 65 | 1017.7 |
| 20260507151132 | 68 | 237 | 1.0 | 4.0 | 0.00 | 0.01 | 0.01 | 65 | 1017.6 |
| 20260507150626 | 69 | 244 | 1.0 | 4.0 | 0.00 | 0.01 | 0.01 | 65 | 1017.7 |
| 20260507150119 | 69 | 232 | 1.0 | 4.0 | 0.00 | 0.01 | 0.01 | 65 | 1017.6 |
| 20260507145614 | 68 | 246 | 2.0 | 5.0 | 0.00 | 0.01 | 0.01 | 65 | 1017.5 |
| 20260507145108 | 69 | 254 | 1.0 | 5.0 | 0.00 | 0.01 | 0.01 | 65 | 1017.5 |
| 20260507144601 | 69 | 210 | 1.0 | 3.0 | 0.00 | 0.01 | 0.01 | 65 | 1017.6 |
| 20260507144056 | 69 | 218 | 2.0 | 5.0 | 0.00 | 0.01 | 0.01 | 65 | 1017.7 |
| 20260507143550 | 69 | 264 | 2.0 | 6.0 | 0.00 | 0.01 | 0.01 | 64 | 1017.7 |
| 20260507143043 | 69 | 240 | 2.0 | 5.0 | 0.00 | 0.01 | 0.01 | 63 | 1017.6 |
| 20260507142538 | 69 | 257 | 3.0 | 5.0 | 0.00 | 0.01 | 0.01 | 64 | 1017.6 |
| 20260507142524 | 69 | 252 | 3.0 | 5.0 | 0.00 | 0.01 | 0.01 | 62 | 1017.6 |
| 20260507141525 | 69 | 259 | 4.0 | 5.0 | 0.00 | 0.01 | 0.01 | 61 | 1017.6 |
| 20260507141235 | 69 | 248 | 3.0 | 5.0 | 0.00 | 0.01 | 0.01 | 61 | 1017.5 |
| 20260507140511 | 70 | 266 | 3.0 | 5.0 | 0.00 | 0.01 | 0.01 | 61 | 1017.5 |
| 20260507140006 | 70 | 297 | 3.0 | 5.0 | 0.00 | 0.01 | 0.01 | 62 | 1017.4 |
| 20260507135500 | 69 | 283 | 3.0 | 6.0 | 0.00 | 0.01 | 0.01 | 63 | 1017.4 |
| 20260507134953 | 69 | 266 | 2.0 | 6.0 | 0.00 | 0.01 | 0.01 | 62 | 1017.4 |
| 20260507134447 | 69 | 259 | 3.0 | 5.0 | 0.00 | 0.01 | 0.01 | 66 | 1017.4 |
| 20260507133944 | 69 | 278 | 3.0 | 6.0 | 0.00 | 0.01 | 0.01 | 70 | 1017.4 |
| 20260507133444 | 69 | 238 | 3.0 | 6.0 | 0.00 | 0.01 | 0.01 | 70 | 1017.4 |
| 20260507133300 | 69 | 228 | 2.0 | 5.0 | 0.00 | 0.01 | 0.01 | 70 | 1017.4 |
| 20260507133146 | 68 | 266 | 2.0 | 5.0 | 0.00 | 0.01 | 0.01 | 74 | 1017.3 |
| 20260507131945 | 68 | 292 | 2.0 | 5.0 | 0.00 | 0.01 | 0.01 | 76 | 1017.4 |
| 20260507131442 | 68 | 277 | 3.0 | 5.0 | 0.00 | 0.01 | 0.01 | 75 | 1017.5 |
| 20260507130940 | 67 | 256 | 4.0 | 6.0 | 0.00 | 0.01 | 0.01 | 76 | 1017.6 |
| 20260507130440 | 67 | 250 | 4.0 | 7.0 | 0.00 | 0.01 | 0.01 | 74 | 1017.6 |
| 20260507125942 | 68 | 275 | 3.0 | 7.0 | 0.00 | 0.01 | 0.01 | 72 | 1017.7 |
| 20260507125439 | 69 | 274 | 2.0 | 5.0 | 0.00 | 0.01 | 0.01 | 71 | 1017.7 |
| 20260507124938 | 69 | 269 | 2.0 | 5.0 | 0.00 | 0.01 | 0.01 | 62 | 1017.7 |
| 20260507124434 | 69 | 5 | 1.0 | 5.0 | 0.00 | 0.01 | 0.01 | 63 | 1017.5 |
| 20260507123936 | 69 | 26 | 0.0 | 4.0 | 0.00 | 0.01 | 0.01 | 70 | 1017.4 |
| 20260507123435 | 69 | 110 | 0.0 | 2.0 | 0.00 | 0.01 | 0.01 | 70 | 1017.7 |
| 20260507123153 | 69 | 245 | 1.0 | 3.0 | 0.00 | 0.01 | 0.01 | 72 | 1018.0 |
| 20260507122430 | 68 | 245 | 2.0 | 4.0 | 0.00 | 0.01 | 0.01 | 73 | 1018.2 |
| 20260507121928 | 68 | 245 | 2.0 | 5.0 | 0.00 | 0.01 | 0.01 | 74 | 1018.4 |
| 20260507121426 | 68 | 221 | 2.0 | 5.0 | 0.00 | 0.01 | 0.01 | 73 | 1018.5 |
| 20260507120924 | 67 | 299 | 1.0 | 2.0 | 0.00 | 0.01 | 0.01 | 74 | 1018.6 |
| 20260507120641 | 67 | 299 | 0.0 | 1.0 | 0.00 | 0.01 | 0.01 | 74 | 1018.6 |
| 20260507120412 | 67 | 299 | 0.0 | 3.0 | 0.00 | 0.01 | 0.01 | 74 | 1018.6 |
| 20260507115416 | 67 | 299 | 1.0 | 3.0 | 0.00 | 0.01 | 0.01 | 74 | 1018.6 |
| 20260507114910 | 67 | 299 | 1.0 | 3.0 | 0.01 | 0.01 | 0.01 | 74 | 1018.7 |
| 20260507114636 | 67 | 299 | 2.0 | 4.0 | 0.01 | 0.01 | 0.01 | 74 | 1018.8 |
| 20260507113852 | 67 | 297 | 2.0 | 4.0 | 0.01 | 0.01 | 0.01 | 73 | 1019.0 |
| 20260507113346 | 67 | 278 | 1.0 | 2.0 | 0.01 | 0.01 | 0.01 | 72 | 1018.9 |
| 20260507113100 | 67 | 278 | 1.0 | 1.0 | 0.01 | 0.01 | 0.01 | 72 | 1019.1 |
| 20260507112333 | 67 | 278 | 1.0 | 2.0 | 0.01 | 0.01 | 0.01 | 72 | 1019.2 |
| 20260507111827 | 67 | 278 | 1.0 | 2.0 | 0.01 | 0.01 | 0.01 | 72 | 1019.2 |
| 20260507111322 | 67 | 278 | 0.0 | 1.0 | 0.01 | 0.01 | 0.01 | 73 | 1019.3 |
| 20260507110816 | 67 | 278 | 0.0 | 1.0 | 0.01 | 0.01 | 0.01 | 74 | 1019.3 |
| 20260507110800 | 67 | 278 | 0.0 | 0.0 | 0.01 | 0.01 | 0.01 | 73 | 1019.2 |
| 20260507105812 | 67 | 278 | 0.0 | 2.0 | 0.01 | 0.01 | 0.01 | 73 | 1019.2 |
| 20260507105312 | 67 | 278 | 0.0 | 2.0 | 0.01 | 0.01 | 0.01 | 71 | 1019.1 |
| 20260507104812 | 67 | 278 | 0.0 | 0.0 | 0.00 | 0.00 | 0.00 | 72 | 1019.1 |
| 20260507104312 | 67 | 278 | 0.0 | 1.0 | 0.00 | 0.00 | 0.00 | 71 | 1019.1 |
| 20260507104034 | 67 | 277 | 0.0 | 1.0 | 0.00 | 0.00 | 0.00 | 71 | 1019.1 |
| 20260507103312 | 67 | 274 | 0.0 | 2.0 | 0.00 | 0.00 | 0.00 | 71 | 1019.1 |
| 20260507102810 | 67 | 274 | 1.0 | 2.0 | 0.00 | 0.00 | 0.00 | 69 | 1019.1 |
| 20260507102753 | 67 | 274 | 1.0 | 3.0 | 0.00 | 0.00 | 0.00 | 69 | 1019.2 |
| 20260507101806 | 67 | 274 | 1.0 | 3.0 | 0.00 | 0.00 | 0.00 | 70 | 1019.1 |
| 20260507101753 | 67 | 274 | 1.0 | 3.0 | 0.00 | 0.00 | 0.00 | 71 | 1019.0 |
| 20260507100804 | 67 | 278 | 1.0 | 3.0 | 0.00 | 0.00 | 0.00 | 71 | 1019.1 |
| 20260507100302 | 67 | 233 | 2.0 | 5.0 | 0.00 | 0.00 | 0.00 | 72 | 1019.2 |
| 20260507095802 | 67 | 248 | 3.0 | 6.0 | 0.00 | 0.00 | 0.00 | 72 | 1019.1 |
| 20260507095305 | 67 | 243 | 3.0 | 6.0 | 0.00 | 0.00 | 0.00 | 70 | 1019.2 |
| 20260507094802 | 67 | 271 | 2.0 | 4.0 | 0.00 | 0.00 | 0.00 | 69 | 1019.1 |
| 20260507094302 | 67 | 270 | 2.0 | 5.0 | 0.00 | 0.00 | 0.00 | 68 | 1018.9 |
| 20260507094021 | 67 | 269 | 2.0 | 5.0 | 0.00 | 0.00 | 0.00 | 68 | 1018.8 |
| 20260507093256 | 67 | 269 | 2.0 | 4.0 | 0.00 | 0.00 | 0.00 | 65 | 1018.8 |
| 20260507092754 | 67 | 269 | 2.0 | 4.0 | 0.00 | 0.00 | 0.00 | 64 | 1018.7 |
| 20260507092254 | 68 | 269 | 1.0 | 3.0 | 0.00 | 0.00 | 0.00 | 64 | 1018.5 |
| 20260507091751 | 68 | 269 | 1.0 | 2.0 | 0.00 | 0.00 | 0.00 | 65 | 1018.4 |
| 20260507091510 | 67 | 269 | 1.0 | 2.0 | 0.00 | 0.00 | 0.00 | 66 | 1018.3 |
| 20260507090748 | 67 | 269 | 1.0 | 3.0 | 0.00 | 0.00 | 0.00 | 66 | 1018.2 |
| 20260507090246 | 67 | 269 | 2.0 | 4.0 | 0.00 | 0.00 | 0.00 | 67 | 1018.2 |
| 20260507090014 | 67 | 269 | 1.0 | 4.0 | 0.00 | 0.00 | 0.00 | 67 | 1018.2 |
| 20260507085245 | 67 | 269 | 1.0 | 2.0 | 0.00 | 0.00 | 0.00 | 65 | 1018.1 |
| 20260507085007 | 67 | 269 | 1.0 | 3.0 | 0.00 | 0.00 | 0.00 | 63 | 1018.2 |
| 20260507084501 | 67 | 269 | 2.0 | 4.0 | 0.00 | 0.00 | 0.00 | 62 | 1018.1 |
| 20260507083740 | 67 | 269 | 1.0 | 4.0 | 0.00 | 0.00 | 0.00 | 61 | 1018.1 |
| 20260507083237 | 67 | 281 | 1.0 | 4.0 | 0.00 | 0.00 | 0.00 | 63 | 1018.0 |
| 20260507082737 | 67 | 281 | 1.0 | 4.0 | 0.00 | 0.00 | 0.00 | 65 | 1017.9 |
| 20260507082236 | 67 | 264 | 1.0 | 2.0 | 0.00 | 0.00 | 0.00 | 66 | 1017.9 |
| 20260507081736 | 67 | 263 | 1.0 | 2.0 | 0.00 | 0.00 | 0.00 | 68 | 1017.9 |
| 20260507081234 | 66 | 263 | 1.0 | 3.0 | 0.00 | 0.00 | 0.00 | 69 | 1017.9 |
| 20260507080732 | 66 | 263 | 2.0 | 4.0 | 0.00 | 0.00 | 0.00 | 68 | 1017.8 |
| 20260507080452 | 66 | 255 | 3.0 | 5.0 | 0.00 | 0.00 | 0.00 | 72 | 1017.7 |
| 20260507075728 | 66 | 250 | 3.0 | 5.0 | 0.00 | 0.00 | 0.00 | 72 | 1017.7 |
| 20260507075229 | 66 | 231 | 2.0 | 5.0 | 0.00 | 0.00 | 0.00 | 71 | 1017.6 |
| 20260507074728 | 67 | 278 | 1.0 | 3.0 | 0.00 | 0.00 | 0.00 | 70 | 1017.5 |
| 20260507074229 | 66 | 283 | 1.0 | 2.0 | 0.00 | 0.00 | 0.00 | 70 | 1017.4 |
| 20260507073728 | 66 | 290 | 0.0 | 0.0 | 0.00 | 0.00 | 0.00 | 70 | 1017.4 |
| 20260507073228 | 66 | 290 | 0.0 | 0.0 | 0.00 | 0.00 | 0.00 | 72 | 1017.2 |
| 20260507072728 | 65 | 290 | 0.0 | 2.0 | 0.00 | 0.00 | 0.00 | 73 | 1017.3 |
| 20260507072456 | 65 | 290 | 1.0 | 4.0 | 0.00 | 0.00 | 0.00 | 72 | 1017.3 |
| 20260507071954 | 66 | 290 | 2.0 | 4.0 | 0.00 | 0.00 | 0.00 | 71 | 1017.3 |
| 20260507071226 | 66 | 304 | 1.0 | 4.0 | 0.00 | 0.00 | 0.00 | 71 | 1017.3 |
| 20260507070724 | 66 | 319 | 1.0 | 3.0 | 0.00 | 0.00 | 0.00 | 71 | 1017.3 |
| 20260507070227 | 66 | 10 | 1.0 | 3.0 | 0.00 | 0.00 | 0.00 | 72 | 1017.2 |
| 20260507065724 | 65 | 282 | 1.0 | 3.0 | 0.00 | 0.00 | 0.00 | 73 | 1017.2 |
| 20260507065449 | 65 | 282 | 2.0 | 3.0 | 0.00 | 0.00 | 0.00 | 73 | 1017.4 |
| 20260507065213 | 65 | 266 | 2.0 | 4.0 | 0.00 | 0.00 | 0.00 | 72 | 1017.5 |
| 20260507064226 | 65 | 254 | 2.0 | 4.0 | 0.00 | 0.00 | 0.00 | 72 | 1017.5 |
| 20260507063723 | 65 | 238 | 2.0 | 5.0 | 0.00 | 0.00 | 0.00 | 72 | 1017.5 |
| 20260507063223 | 65 | 287 | 2.0 | 5.0 | 0.00 | 0.00 | 0.00 | 71 | 1017.5 |
| 20260507062715 | 65 | 249 | 3.0 | 7.0 | 0.00 | 0.00 | 0.00 | 71 | 1017.5 |
| 20260507062208 | 65 | 252 | 3.0 | 7.0 | 0.00 | 0.00 | 0.00 | 71 | 1017.6 |
| 20260507061702 | 65 | 278 | 2.0 | 4.0 | 0.00 | 0.00 | 0.00 | 70 | 1017.5 |
| 20260507061157 | 65 | 269 | 2.0 | 5.0 | 0.00 | 0.00 | 0.00 | 71 | 1017.3 |
| 20260507060651 | 65 | 211 | 2.0 | 5.0 | 0.00 | 0.00 | 0.00 | 70 | 1017.3 |
| 20260507060406 | 66 | 262 | 2.0 | 4.0 | 0.00 | 0.00 | 0.00 | 70 | 1017.2 |
| 20260507055638 | 65 | 214 | 1.0 | 4.0 | 0.00 | 0.00 | 0.00 | 70 | 1017.2 |
| 20260507055355 | 66 | 304 | 1.0 | 3.0 | 0.00 | 0.00 | 0.00 | 70 | 1017.0 |
| 20260507054626 | 66 | 304 | 1.0 | 2.0 | 0.00 | 0.00 | 0.00 | 70 | 1017.0 |
| 20260507054121 | 65 | 304 | 1.0 | 3.0 | 0.00 | 0.00 | 0.00 | 71 | 1017.1 |
| 20260507053615 | 66 | 304 | 1.0 | 3.0 | 0.00 | 0.00 | 0.00 | 70 | 1017.0 |
| 20260507053107 | 66 | 304 | 1.0 | 2.0 | 0.00 | 0.00 | 0.00 | 67 | 1017.0 |
| 20260507052602 | 66 | 304 | 0.0 | 2.0 | 0.00 | 0.00 | 0.00 | 67 | 1017.0 |
| 20260507052100 | 67 | 304 | 0.0 | 2.0 | 0.00 | 0.00 | 0.00 | 65 | 1016.9 |
| 20260507051820 | 67 | 304 | 0.0 | 0.0 | 0.00 | 0.00 | 0.00 | 67 | 1016.7 |
| 20260507051059 | 66 | 304 | 0.0 | 0.0 | 0.00 | 0.00 | 0.00 | 68 | 1016.6 |
| 20260507050559 | 65 | 304 | 0.0 | 1.0 | 0.00 | 0.00 | 0.00 | 69 | 1016.7 |
| 20260507050322 | 64 | 304 | 0.0 | 1.0 | 0.00 | 0.00 | 0.00 | 70 | 1016.9 |
| 20260507045556 | 64 | 304 | 0.0 | 1.0 | 0.00 | 0.00 | 0.00 | 69 | 1016.7 |
| 20260507045055 | 64 | 304 | 0.0 | 1.0 | 0.00 | 0.00 | 0.00 | 70 | 1016.9 |
| 20260507044555 | 64 | 304 | 0.0 | 2.0 | 0.00 | 0.00 | 0.00 | 71 | 1016.6 |
| 20260507044314 | 63 | 304 | 0.0 | 2.0 | 0.00 | 0.00 | 0.00 | 72 | 1016.6 |
| 20260507043551 | 64 | 304 | 0.0 | 1.0 | 0.00 | 0.00 | 0.00 | 73 | 1016.6 |
| 20260507043052 | 63 | 304 | 0.0 | 1.0 | 0.00 | 0.00 | 0.00 | 74 | 1016.6 |
| 20260507042551 | 63 | 304 | 0.0 | 1.0 | 0.00 | 0.00 | 0.00 | 74 | 1016.7 |
| 20260507042050 | 63 | 304 | 0.0 | 0.0 | 0.00 | 0.00 | 0.00 | 76 | 1016.7 |
| 20260507041547 | 62 | 304 | 0.0 | 1.0 | 0.00 | 0.00 | 0.00 | 77 | 1016.6 |
| 20260507041048 | 61 | 304 | 0.0 | 1.0 | 0.00 | 0.00 | 0.00 | 77 | 1016.6 |
| 20260507040547 | 61 | 304 | 0.0 | 1.0 | 0.00 | 0.00 | 0.00 | 78 | 1016.5 |
| 20260507040046 | 61 | 304 | 0.0 | 0.0 | 0.00 | 0.00 | 0.00 | 78 | 1016.5 |
| 20260507035546 | 61 | 304 | 0.0 | 2.0 | 0.00 | 0.00 | 0.00 | 78 | 1016.5 |
| 20260507035045 | 61 | 304 | 0.0 | 2.0 | 0.00 | 0.00 | 0.00 | 79 | 1016.4 |
| 20260507034539 | 60 | 304 | 1.0 | 3.0 | 0.00 | 0.00 | 0.00 | 80 | 1016.3 |
| 20260507034033 | 60 | 304 | 2.0 | 3.0 | 0.00 | 0.00 | 0.00 | 80 | 1016.3 |
| 20260507033527 | 60 | 304 | 2.0 | 3.0 | 0.00 | 0.00 | 0.00 | 80 | 1016.2 |
| 20260507033020 | 60 | 304 | 1.0 | 3.0 | 0.00 | 0.00 | 0.00 | 80 | 1016.2 |
| 20260507032515 | 60 | 304 | 0.0 | 1.0 | 0.00 | 0.00 | 0.00 | 79 | 1016.1 |
| 20260507032231 | 60 | 304 | 0.0 | 1.0 | 0.00 | 0.00 | 0.00 | 78 | 1016.2 |
| 20260507031502 | 61 | 304 | 0.0 | 1.0 | 0.00 | 0.00 | 0.00 | 78 | 1016.2 |
| 20260507030957 | 61 | 304 | 0.0 | 0.0 | 0.00 | 0.00 | 0.00 | 78 | 1016.2 |
| 20260507030452 | 61 | 304 | 0.0 | 0.0 | 0.00 | 0.00 | 0.00 | 78 | 1016.2 |
| 20260507030203 | 61 | 304 | 0.0 | 0.0 | 0.00 | 0.00 | 0.00 | 78 | 1016.1 |
| 20260507025440 | 61 | 304 | 0.0 | 0.0 | 0.00 | 0.00 | 0.00 | 78 | 1016.1 |
| 20260507024933 | 61 | 304 | 0.0 | 0.0 | 0.00 | 0.00 | 0.00 | 78 | 1016.1 |
| 20260507024653 | 61 | 304 | 0.0 | 0.0 | 0.00 | 0.00 | 0.00 | 78 | 1016.0 |
| 20260507023920 | 61 | 304 | 0.0 | 0.0 | 0.00 | 0.00 | 0.00 | 78 | 1016.0 |
| 20260507023415 | 61 | 304 | 0.0 | 0.0 | 0.00 | 0.00 | 0.00 | 78 | 1016.0 |
| 20260507022909 | 61 | 304 | 0.0 | 1.0 | 0.00 | 0.00 | 0.00 | 77 | 1015.9 |
| 20260507022623 | 61 | 304 | 1.0 | 2.0 | 0.00 | 0.00 | 0.00 | 77 | 1015.8 |
| 20260507022120 | 61 | 304 | 0.0 | 2.0 | 0.00 | 0.00 | 0.00 | 77 | 1015.7 |
| 20260507021351 | 61 | 304 | 0.0 | 1.0 | 0.00 | 0.00 | 0.00 | 78 | 1015.8 |
| 20260507020845 | 61 | 304 | 0.0 | 1.0 | 0.00 | 0.00 | 0.00 | 77 | 1015.9 |
| 20260507020338 | 61 | 304 | 0.0 | 1.0 | 0.00 | 0.00 | 0.00 | 77 | 1016.0 |
| 20260507015833 | 61 | 304 | 0.0 | 2.0 | 0.00 | 0.00 | 0.00 | 78 | 1015.9 |
| 20260507015326 | 61 | 304 | 0.0 | 2.0 | 0.00 | 0.00 | 0.00 | 78 | 1015.7 |
| 20260507015048 | 61 | 304 | 0.0 | 1.0 | 0.00 | 0.00 | 0.00 | 78 | 1015.7 |
| 20260507014314 | 61 | 304 | 0.0 | 1.0 | 0.00 | 0.00 | 0.00 | 78 | 1015.8 |
| 20260507013809 | 61 | 304 | 0.0 | 2.0 | 0.00 | 0.00 | 0.00 | 78 | 1015.7 |
| 20260507013303 | 62 | 304 | 1.0 | 2.0 | 0.00 | 0.00 | 0.00 | 78 | 1015.7 |
| 20260507012757 | 62 | 304 | 1.0 | 2.0 | 0.00 | 0.00 | 0.00 | 79 | 1015.7 |
| 20260507012251 | 62 | 304 | 1.0 | 3.0 | 0.00 | 0.00 | 0.00 | 81 | 1015.7 |
| 20260507011745 | 62 | 304 | 1.0 | 3.0 | 0.00 | 0.00 | 0.00 | 81 | 1015.7 |
| 20260507011239 | 62 | 304 | 1.0 | 3.0 | 0.00 | 0.00 | 0.00 | 81 | 1015.6 |
| 20260507010732 | 62 | 304 | 2.0 | 3.0 | 0.00 | 0.00 | 0.00 | 81 | 1015.6 |
| 20260507010227 | 62 | 304 | 1.0 | 2.0 | 0.00 | 0.00 | 0.00 | 81 | 1015.6 |
| 20260507005720 | 62 | 304 | 2.0 | 4.0 | 0.00 | 0.00 | 0.00 | 80 | 1015.6 |
| 20260507005214 | 62 | 304 | 2.0 | 4.0 | 0.00 | 0.00 | 0.00 | 80 | 1015.6 |
| 20260507004710 | 62 | 305 | 1.0 | 3.0 | 0.00 | 0.00 | 0.00 | 79 | 1015.6 |
| 20260507004206 | 62 | 305 | 0.0 | 2.0 | 0.00 | 0.00 | 0.00 | 78 | 1015.4 |
| 20260507003657 | 62 | 305 | 0.0 | 0.0 | 0.00 | 0.00 | 0.00 | 77 | 1015.3 |
| 20260507003151 | 61 | 305 | 0.0 | 0.0 | 0.00 | 0.00 | 0.00 | 77 | 1015.3 |
| 20260507002645 | 61 | 305 | 0.0 | 0.0 | 0.00 | 0.00 | 0.00 | 77 | 1015.3 |
| 20260507002409 | 61 | 305 | 0.0 | 2.0 | 0.00 | 0.00 | 0.00 | 77 | 1015.3 |
| 20260507001633 | 61 | 305 | 0.0 | 2.0 | 0.00 | 0.00 | 0.00 | 77 | 1015.3 |
| 20260507001126 | 62 | 305 | 0.0 | 2.0 | 0.00 | 0.00 | 0.00 | 77 | 1015.3 |
| 20260507000621 | 62 | 305 | 1.0 | 2.0 | 0.00 | 0.00 | 0.00 | 77 | 1015.3 |
| 20260507000115 | 62 | 305 | 1.0 | 3.0 | 0.00 | 0.00 | 0.00 | 78 | 1015.4 |
| 20260506235608 | 63 | 305 | 1.0 | 3.0 | 0.00 | 0.00 | 0.00 | 80 | 1015.5 |
| 20260506235328 | 63 | 305 | 1.0 | 3.0 | 0.00 | 0.00 | 0.00 | 81 | 1015.6 |
| 20260506234557 | 63 | 305 | 2.0 | 4.0 | 0.00 | 0.00 | 0.00 | 82 | 1015.6 |
| 20260506234051 | 63 | 305 | 2.0 | 4.0 | 0.00 | 0.00 | 0.00 | 82 | 1015.7 |
| 20260506233545 | 63 | 304 | 2.0 | 4.0 | 0.00 | 0.00 | 0.00 | 82 | 1015.8 |
| 20260506233045 | 63 | 305 | 1.0 | 3.0 | 0.00 | 0.00 | 0.00 | 82 | 1015.8 |
| 20260506232543 | 63 | 305 | 1.0 | 3.0 | 0.00 | 0.00 | 0.00 | 82 | 1015.8 |
| 20260506232041 | 63 | 305 | 1.0 | 3.0 | 0.00 | 0.00 | 0.00 | 82 | 1015.7 |
| 20260506231538 | 63 | 305 | 1.0 | 3.0 | 0.00 | 0.00 | 0.00 | 82 | 1015.8 |
| 20260506231258 | 63 | 305 | 1.0 | 3.0 | 0.00 | 0.00 | 0.00 | 82 | 1015.7 |
| 20260506230758 | 63 | 305 | 1.0 | 3.0 | 0.00 | 0.00 | 0.00 | 82 | 1015.7 |
| 20260506230303 | 63 | 305 | 1.0 | 2.0 | 0.00 | 0.00 | 0.00 | 82 | 1015.7 |
| 20260506225535 | 63 | 305 | 2.0 | 3.0 | 0.00 | 0.00 | 0.00 | 82 | 1015.7 |
| 20260506225035 | 63 | 305 | 2.0 | 3.0 | 0.00 | 0.00 | 0.00 | 82 | 1015.8 |
| 20260506224534 | 63 | 305 | 1.0 | 3.0 | 0.00 | 0.00 | 0.00 | 82 | 1015.9 |
| 20260506224033 | 63 | 305 | 1.0 | 3.0 | 0.00 | 0.00 | 0.00 | 82 | 1015.8 |
| 20260506223530 | 63 | 305 | 1.0 | 3.0 | 0.00 | 0.00 | 0.00 | 82 | 1015.8 |
| 20260506223030 | 63 | 305 | 1.0 | 3.0 | 0.00 | 0.00 | 0.00 | 82 | 1015.7 |
| 20260506222531 | 63 | 305 | 1.0 | 3.0 | 0.00 | 0.00 | 0.00 | 82 | 1015.8 |
| 20260506222030 | 63 | 305 | 1.0 | 3.0 | 0.00 | 0.00 | 0.00 | 82 | 1015.8 |
| 20260506221529 | 63 | 305 | 1.0 | 4.0 | 0.00 | 0.00 | 0.00 | 83 | 1015.8 |
| 20260506221029 | 63 | 305 | 1.0 | 4.0 | 0.00 | 0.00 | 0.00 | 83 | 1015.8 |
| 20260506220528 | 63 | 305 | 1.0 | 3.0 | 0.00 | 0.00 | 0.00 | 83 | 1015.7 |
| 20260506220028 | 63 | 305 | 2.0 | 4.0 | 0.00 | 0.00 | 0.00 | 84 | 1015.7 |
| 20260506215528 | 63 | 305 | 2.0 | 4.0 | 0.00 | 0.00 | 0.00 | 84 | 1015.8 |
| 20260506215028 | 63 | 305 | 2.0 | 4.0 | 0.00 | 0.00 | 0.00 | 84 | 1015.8 |
| 20260506214529 | 63 | 305 | 2.0 | 3.0 | 0.00 | 0.00 | 0.00 | 84 | 1015.7 |
| 20260506214029 | 63 | 305 | 2.0 | 5.0 | 0.00 | 0.00 | 0.00 | 84 | 1015.8 |
| 20260506213529 | 63 | 305 | 2.0 | 5.0 | 0.00 | 0.00 | 0.00 | 84 | 1015.9 |
| 20260506213029 | 63 | 305 | 2.0 | 4.0 | 0.00 | 0.00 | 0.00 | 85 | 1015.8 |
| 20260506212751 | 63 | 305 | 3.0 | 5.0 | 0.00 | 0.00 | 0.00 | 85 | 1015.8 |
| 20260506212028 | 63 | 305 | 3.0 | 5.0 | 0.00 | 0.00 | 0.00 | 85 | 1015.9 |
| 20260506211529 | 63 | 305 | 2.0 | 5.0 | 0.00 | 0.00 | 0.00 | 85 | 1015.9 |
| 20260506211029 | 63 | 305 | 2.0 | 5.0 | 0.00 | 0.00 | 0.00 | 85 | 1015.9 |
| 20260506210528 | 63 | 299 | 3.0 | 5.0 | 0.00 | 0.00 | 0.00 | 85 | 1015.9 |
| 20260506210029 | 64 | 303 | 3.0 | 6.0 | 0.00 | 0.00 | 0.00 | 85 | 1015.9 |
| 20260506205527 | 64 | 297 | 3.0 | 6.0 | 0.00 | 0.00 | 0.00 | 84 | 1016.1 |
| 20260506205027 | 64 | 273 | 2.0 | 5.0 | 0.00 | 0.00 | 0.00 | 84 | 1016.1 |
| 20260506204527 | 64 | 273 | 2.0 | 4.0 | 0.00 | 0.00 | 0.00 | 83 | 1016.0 |
| 20260506204024 | 64 | 273 | 2.0 | 4.0 | 0.00 | 0.00 | 0.00 | 83 | 1016.0 |
| 20260506203525 | 64 | 273 | 2.0 | 4.0 | 0.00 | 0.00 | 0.00 | 83 | 1015.9 |
| 20260506203019 | 64 | 273 | 1.0 | 3.0 | 0.00 | 0.00 | 0.00 | 83 | 1015.8 |
| 20260506202513 | 64 | 273 | 2.0 | 5.0 | 0.00 | 0.00 | 0.00 | 83 | 1015.8 |
| 20260506202013 | 64 | 273 | 2.0 | 5.0 | 0.00 | 0.00 | 0.00 | 83 | 1015.8 |
| 20260506201732 | 64 | 308 | 2.0 | 4.0 | 0.00 | 0.00 | 0.00 | 83 | 1015.7 |
| 20260506201012 | 64 | 301 | 1.0 | 4.0 | 0.00 | 0.00 | 0.00 | 83 | 1015.7 |
| 20260506200512 | 64 | 254 | 1.0 | 2.0 | 0.00 | 0.00 | 0.00 | 83 | 1015.7 |
| 20260506200013 | 64 | 253 | 1.0 | 4.0 | 0.00 | 0.00 | 0.00 | 82 | 1015.7 |
| 20260506195513 | 64 | 264 | 1.0 | 4.0 | 0.00 | 0.00 | 0.00 | 82 | 1015.8 |
| 20260506195013 | 64 | 259 | 1.0 | 3.0 | 0.00 | 0.00 | 0.00 | 83 | 1015.6 |
| 20260506194512 | 64 | 258 | 1.0 | 2.0 | 0.00 | 0.00 | 0.00 | 83 | 1015.5 |
| 20260506194012 | 64 | 258 | 1.0 | 2.0 | 0.00 | 0.00 | 0.00 | 82 | 1015.4 |
| 20260506193512 | 64 | 258 | 1.0 | 2.0 | 0.00 | 0.00 | 0.00 | 82 | 1015.4 |
| 20260506193013 | 64 | 258 | 1.0 | 2.0 | 0.00 | 0.00 | 0.00 | 82 | 1015.4 |
| 20260506192513 | 64 | 226 | 1.0 | 2.0 | 0.00 | 0.00 | 0.00 | 82 | 1015.4 |
| 20260506192012 | 64 | 226 | 1.0 | 2.0 | 0.00 | 0.00 | 0.00 | 82 | 1015.3 |
| 20260506191512 | 64 | 226 | 1.0 | 2.0 | 0.00 | 0.00 | 0.00 | 82 | 1015.3 |
| 20260506191013 | 64 | 226 | 1.0 | 2.0 | 0.00 | 0.00 | 0.00 | 81 | 1015.3 |
| 20260506190738 | 64 | 220 | 0.0 | 2.0 | 0.00 | 0.00 | 0.00 | 82 | 1015.3 |
| 20260506190013 | 64 | 220 | 1.0 | 3.0 | 0.00 | 0.00 | 0.00 | 81 | 1015.3 |
| 20260506185513 | 65 | 220 | 1.0 | 3.0 | 0.00 | 0.00 | 0.00 | 81 | 1015.2 |
| 20260506185013 | 65 | 221 | 0.0 | 2.0 | 0.00 | 0.00 | 0.00 | 81 | 1015.2 |
| 20260506184512 | 65 | 221 | 0.0 | 2.0 | 0.00 | 0.00 | 0.00 | 82 | 1015.1 |
| 20260506184013 | 65 | 221 | 0.0 | 2.0 | 0.00 | 0.00 | 0.00 | 81 | 1015.1 |
| 20260506183512 | 65 | 97 | 1.0 | 3.0 | 0.00 | 0.00 | 0.00 | 82 | 1015.0 |
| 20260506183012 | 65 | 97 | 0.0 | 3.0 | 0.00 | 0.00 | 0.00 | 82 | 1015.0 |
| 20260506182513 | 65 | 197 | 0.0 | 3.0 | 0.00 | 0.00 | 0.00 | 82 | 1014.9 |
| 20260506182012 | 65 | 198 | 1.0 | 3.0 | 0.00 | 0.00 | 0.00 | 81 | 1014.9 |
| 20260506181512 | 65 | 160 | 1.0 | 3.0 | 0.00 | 0.00 | 0.00 | 81 | 1014.8 |
| 20260506181012 | 65 | 150 | 2.0 | 3.0 | 0.00 | 0.00 | 0.00 | 81 | 1014.8 |
| 20260506180512 | 65 | 153 | 1.0 | 3.0 | 0.00 | 0.00 | 0.00 | 81 | 1014.7 |
| 20260506180012 | 65 | 103 | 1.0 | 5.0 | 0.00 | 0.00 | 0.00 | 81 | 1014.6 |
| 20260506175734 | 65 | 103 | 1.0 | 5.0 | 0.00 | 0.00 | 0.00 | 81 | 1014.5 |
| 20260506175010 | 66 | 123 | 1.0 | 5.0 | 0.00 | 0.00 | 0.00 | 81 | 1014.5 |
| 20260506174728 | 66 | 216 | 2.0 | 6.0 | 0.00 | 0.00 | 0.00 | 80 | 1014.4 |
| 20260506173957 | 66 | 140 | 2.0 | 7.0 | 0.00 | 0.00 | 0.00 | 80 | 1014.3 |
| 20260506173452 | 66 | 160 | 1.0 | 7.0 | 0.00 | 0.00 | 0.00 | 79 | 1014.3 |
| 20260506172945 | 66 | 205 | 1.0 | 7.0 | 0.00 | 0.00 | 0.00 | 79 | 1014.3 |
| 20260506172440 | 67 | 205 | 3.0 | 7.0 | 0.00 | 0.00 | 0.00 | 78 | 1014.3 |